�������l�o���
Date,Time,MP-1(��Sv/h),MP-2(��Sv/h),MP-3(��Sv/h),MP-4(��Sv/h),MP-5(��Sv/h),MP-6(��Sv/h),MP-7(��Sv/h),MP-8(��Sv/h),����,����(m/s),���J
2022/11/23,00:00,0.572,0.827,0.522,1.048,0.731,0.333,0.590,0.558,�k�k��,5.6,��
2022/11/23,00:10,0.572,0.826,0.522,1.048,0.731,0.333,0.591,0.555,�k�k��,6.8,��
2022/11/23,00:20,0.572,0.826,0.522,1.048,0.730,0.333,0.589,0.557,�k�k��,6.0,��
2022/11/23,00:30,0.572,0.824,0.523,1.047,0.731,0.333,0.591,0.556,�k�k��,5.5,��
2022/11/23,00:40,0.571,0.826,0.523,1.047,0.729,0.333,0.590,0.556,�k��,5.5,��
2022/11/23,00:50,0.572,0.826,0.522,1.048,0.730,0.332,0.591,0.556,�k��,5.7,��
2022/11/23,01:00,0.572,0.826,0.524,1.046,0.730,0.333,0.588,0.555,�k��,5.0,��
2022/11/23,01:10,0.573,0.826,0.522,1.049,0.730,0.334,0.592,0.556,�k��,6.1,��
2022/11/23,01:20,0.572,0.827,0.523,1.048,0.730,0.334,0.590,0.556,�k��,6.1,��
2022/11/23,01:30,0.570,0.827,0.522,1.048,0.729,0.333,0.591,0.556,�k�k��,5.9,��
2022/11/23,01:40,0.571,0.825,0.522,1.045,0.731,0.333,0.589,0.555,�k��,5.9,��
2022/11/23,01:50,0.570,0.827,0.521,1.046,0.729,0.333,0.590,0.554,�k�k��,6.2,��
2022/11/23,02:00,0.570,0.824,0.521,1.047,0.731,0.333,0.590,0.557,�k�k��,6.8,��
2022/11/23,02:10,0.571,0.826,0.524,1.045,0.731,0.332,0.588,0.555,�k�k��,6.4,��
2022/11/23,02:20,0.572,0.828,0.523,1.047,0.729,0.332,0.589,0.556,�k�k��,6.3,��
2022/11/23,02:30,0.571,0.827,0.524,1.047,0.729,0.333,0.590,0.556,�k��,7.1,��
2022/11/23,02:40,0.572,0.826,0.521,1.047,0.731,0.332,0.590,0.556,�k��,5.0,��
2022/11/23,02:50,0.572,0.827,0.523,1.049,0.731,0.332,0.590,0.557,�k�k��,6.4,��
2022/11/23,03:00,0.571,0.827,0.521,1.049,0.728,0.334,0.590,0.557,�k�k��,5.8,��
2022/11/23,03:10,0.569,0.828,0.522,1.048,0.731,0.333,0.589,0.558,�k�k��,6.1,��
2022/11/23,03:20,0.572,0.826,0.522,1.050,0.730,0.333,0.590,0.555,�k�k��,6.7,��
2022/11/23,03:30,0.569,0.827,0.522,1.050,0.730,0.334,0.591,0.556,�k�k��,7.7,��
2022/11/23,03:40,0.571,0.825,0.522,1.048,0.730,0.332,0.589,0.558,�k�k��,6.5,��
2022/11/23,03:50,0.571,0.827,0.523,1.048,0.729,0.333,0.590,0.555,�k�k��,6.9,��
2022/11/23,04:00,0.571,0.827,0.522,1.049,0.729,0.332,0.589,0.556,�k�k��,6.4,��
2022/11/23,04:10,0.571,0.827,0.523,1.050,0.732,0.332,0.589,0.559,�k�k��,7.0,��
2022/11/23,04:20,0.571,0.827,0.522,1.049,0.730,0.333,0.589,0.557,�k�k��,6.4,��
2022/11/23,04:30,0.571,0.828,0.524,1.049,0.731,0.333,0.590,0.557,�k�k��,6.9,��
2022/11/23,04:40,0.570,0.826,0.522,1.051,0.731,0.333,0.591,0.558,�k�k��,4.5,��
2022/11/23,04:50,0.570,0.826,0.521,1.048,0.730,0.333,0.591,0.557,�k��,4.6,��
2022/11/23,05:00,0.571,0.827,0.522,1.049,0.730,0.334,0.590,0.558,�k��,5.4,��
2022/11/23,05:10,0.570,0.828,0.522,1.051,0.731,0.333,0.590,0.558,�k��,4.1,��
2022/11/23,05:20,0.572,0.827,0.523,1.049,0.732,0.333,0.590,0.557,�k��,5.7,��
2022/11/23,05:30,0.572,0.827,0.523,1.049,0.731,0.333,0.591,0.558,�k��,5.7,�L
2022/11/23,05:40,0.571,0.827,0.522,1.049,0.732,0.334,0.592,0.559,�k�k��,5.4,�L
2022/11/23,05:50,0.570,0.827,0.523,1.049,0.731,0.333,0.591,0.558,�k�k��,5.6,�L
2022/11/23,06:00,0.570,0.826,0.524,1.050,0.732,0.332,0.591,0.557,�k�k��,6.3,�L
2022/11/23,06:10,0.571,0.828,0.523,1.051,0.731,0.334,0.592,0.557,�k�k��,6.4,�L
2022/11/23,06:20,0.570,0.828,0.523,1.050,0.731,0.332,0.589,0.558,�k�k��,6.4,��
2022/11/23,06:30,0.573,0.829,0.525,1.049,0.731,0.333,0.590,0.557,�k�k��,7.5,��
2022/11/23,06:40,0.571,0.827,0.523,1.050,0.732,0.334,0.590,0.556,�k�k��,6.6,��
2022/11/23,06:50,0.571,0.826,0.523,1.049,0.731,0.334,0.591,0.555,�k��,5.7,��
2022/11/23,07:00,0.572,0.830,0.523,1.049,0.728,0.333,0.590,0.556,�k��,4.8,��
2022/11/23,07:10,0.571,0.831,0.523,1.053,0.732,0.333,0.591,0.556,�k�k��,5.1,�L
2022/11/23,07:20,0.572,0.829,0.524,1.051,0.732,0.333,0.589,0.557,�k��,4.9,�L
2022/11/23,07:30,0.572,0.827,0.524,1.051,0.733,0.334,0.590,0.556,�k�k��,6.4,�L
2022/11/23,07:40,0.573,0.829,0.524,1.050,0.730,0.332,0.590,0.558,�k�k��,7.0,�L
2022/11/23,07:50,0.572,0.826,0.526,1.051,0.731,0.334,0.591,0.558,�k�k��,7.9,��
2022/11/23,08:00,0.572,0.826,0.523,1.053,0.732,0.334,0.591,0.557,�k�k��,7.6,��
2022/11/23,08:10,0.571,0.824,0.523,1.051,0.731,0.333,0.590,0.557,�k�k��,8.1,��
2022/11/23,08:20,0.571,0.826,0.523,1.051,0.732,0.334,0.588,0.557,�k�k��,7.5,��
2022/11/23,08:30,0.573,0.826,0.523,1.051,0.731,0.334,0.588,0.558,�k�k��,7.0,��
2022/11/23,08:40,0.572,0.827,0.524,1.051,0.733,0.334,0.590,0.556,�k�k��,6.9,�L
2022/11/23,08:50,0.574,0.825,0.523,1.050,0.733,0.334,0.588,0.557,�k��,7.1,�L
2022/11/23,09:00,0.574,0.825,0.523,1.052,0.733,0.333,0.590,0.557,�k��,7.6,��
2022/11/23,09:10,0.572,0.824,0.524,1.052,0.731,0.334,0.590,0.555,�k��,7.7,��
2022/11/23,09:20,0.573,0.826,0.524,1.050,0.730,0.333,0.589,0.556,�k�k��,7.9,��
2022/11/23,09:30,0.573,0.823,0.524,1.052,0.730,0.333,0.590,0.557,�k�k��,7.3,�L
2022/11/23,09:40,0.573,0.823,0.524,1.053,0.731,0.333,0.589,0.558,�k�k��,7.7,�L
2022/11/23,09:50,0.573,0.825,0.525,1.052,0.732,0.335,0.590,0.557,�k�k��,7.6,�L
2022/11/23,10:00,0.573,0.825,0.525,1.050,0.732,0.334,0.587,0.557,�k�k��,7.5,�L
2022/11/23,10:10,0.573,0.825,0.525,1.052,0.731,0.335,0.589,0.558,�k�k��,7.9,�L
2022/11/23,10:20,0.574,0.824,0.525,1.053,0.731,0.335,0.589,0.557,�k�k��,8.3,�L
2022/11/23,10:30,0.573,0.824,0.525,1.053,0.730,0.336,0.589,0.558,�k��,6.2,�L
2022/11/23,10:40,0.573,0.824,0.524,1.051,0.731,0.335,0.589,0.555,�k�k��,6.8,�L
2022/11/23,10:50,0.574,0.824,0.524,1.050,0.731,0.334,0.590,0.557,�k�k��,7.2,�L
2022/11/23,11:00,0.572,0.823,0.522,1.051,0.730,0.335,0.589,0.559,�k�k��,7.7,�L
2022/11/23,11:10,0.572,0.823,0.525,1.051,0.729,0.334,0.589,0.557,�k��,7.0,�L
2022/11/23,11:20,0.572,0.821,0.523,1.050,0.729,0.335,0.590,0.556,�k�k��,7.0,�L
2022/11/23,11:30,0.573,0.824,0.526,1.051,0.728,0.336,0.590,0.557,�k�k��,7.6,�L
2022/11/23,11:40,0.573,0.819,0.524,1.050,0.729,0.336,0.589,0.557,�k�k��,7.0,�L
2022/11/23,11:50,0.572,0.823,0.524,1.050,0.728,0.336,0.589,0.557,�k�k��,7.0,�L
2022/11/23,12:00,0.572,0.821,0.522,1.049,0.727,0.336,0.588,0.557,�k��,6.6,�L
2022/11/23,12:10,0.571,0.822,0.523,1.048,0.729,0.337,0.590,0.557,�k��,7.5,�L
2022/11/23,12:20,0.571,0.820,0.523,1.049,0.726,0.337,0.588,0.558,�k�k��,7.2,�L
2022/11/23,12:30,0.570,0.820,0.523,1.047,0.725,0.337,0.589,0.556,�k��,8.4,�L
2022/11/23,12:40,0.571,0.819,0.522,1.049,0.725,0.337,0.588,0.556,�k�k��,7.5,�L
2022/11/23,12:50,0.570,0.816,0.522,1.047,0.726,0.336,0.589,0.556,�k�k��,8.2,�L
2022/11/23,13:00,0.570,0.816,0.521,1.047,0.724,0.336,0.589,0.557,�k�k��,8.5,�L
2022/11/23,13:10,0.570,0.816,0.521,1.048,0.724,0.335,0.587,0.556,�k�k��,7.1,�L
2022/11/23,13:20,0.570,0.816,0.522,1.047,0.724,0.335,0.588,0.558,�k��,9.2,�L
2022/11/23,13:30,0.571,0.816,0.518,1.047,0.722,0.336,0.590,0.554,�k��,9.3,�L
2022/11/23,13:40,0.571,0.813,0.519,1.047,0.723,0.336,0.587,0.555,�k��,7.6,�L
2022/11/23,13:50,0.570,0.814,0.519,1.043,0.722,0.334,0.585,0.554,�k�k��,8.7,�L
2022/11/23,14:00,0.569,0.812,0.520,1.042,0.718,0.337,0.585,0.552,�k�k��,9.1,�L
2022/11/23,14:10,0.568,0.809,0.521,1.040,0.717,0.338,0.584,0.553,�k�k��,7.6,�L
2022/11/23,14:20,0.566,0.808,0.523,1.036,0.715,0.337,0.585,0.551,�k�k��,8.1,�L
2022/11/23,14:30,0.566,0.806,0.519,1.036,0.717,0.337,0.583,0.553,�k�k��,7.4,�L
2022/11/23,14:40,0.565,0.802,0.519,1.032,0.713,0.338,0.584,0.552,�k��,8.7,�L
2022/11/23,14:50,0.562,0.800,0.517,1.027,0.711,0.337,0.581,0.551,�k�k��,7.6,�L
2022/11/23,15:00,0.559,0.800,0.517,1.024,0.709,0.337,0.581,0.553,�k�k��,8.9,�L
2022/11/23,15:10,0.563,0.797,0.517,1.023,0.708,0.336,0.580,0.551,�k�k��,6.7,�L
2022/11/23,15:20,0.562,0.799,0.519,1.018,0.707,0.335,0.581,0.550,�k�k��,7.9,�L
2022/11/23,15:30,0.561,0.800,0.516,1.019,0.704,0.335,0.580,0.550,�k�k��,9.1,�L
2022/11/23,15:40,0.560,0.798,0.515,1.016,0.704,0.336,0.579,0.548,�k�k��,7.7,�L
2022/11/23,15:50,0.558,0.795,0.515,1.015,0.706,0.335,0.580,0.550,�k�k��,8.8,�L
2022/11/23,16:00,0.560,0.796,0.516,1.017,0.703,0.336,0.578,0.549,�k�k��,8.0,�L
2022/11/23,16:10,0.560,0.798,0.517,1.014,0.702,0.334,0.578,0.549,�k��,8.5,�L
2022/11/23,16:20,0.559,0.796,0.516,1.012,0.702,0.334,0.578,0.548,�k�k��,8.1,�L
2022/11/23,16:30,0.558,0.795,0.516,1.010,0.700,0.333,0.578,0.548,�k�k��,7.7,�L
2022/11/23,16:40,0.556,0.794,0.516,1.009,0.698,0.334,0.578,0.548,�k�k��,8.2,�L
2022/11/23,16:50,0.557,0.793,0.513,1.006,0.698,0.334,0.579,0.548,�k�k��,8.1,�L
2022/11/23,17:00,0.558,0.792,0.514,1.006,0.697,0.334,0.577,0.546,�k�k��,7.3,�L
2022/11/23,17:10,0.556,0.792,0.513,1.006,0.696,0.334,0.575,0.546,�k�k��,8.5,�L
2022/11/23,17:20,0.552,0.789,0.512,1.000,0.690,0.333,0.576,0.548,�k�k��,8.9,�L
2022/11/23,17:30,0.548,0.788,0.509,0.999,0.689,0.332,0.575,0.546,�k�k��,6.1,�L
2022/11/23,17:40,0.542,0.782,0.508,0.995,0.689,0.333,0.576,0.546,�k�k��,8.7,�L
2022/11/23,17:50,0.551,0.787,0.510,0.996,0.692,0.331,0.575,0.547,�k�k��,8.5,�L
2022/11/23,18:00,0.550,0.786,0.509,0.996,0.689,0.331,0.575,0.544,�k�k��,8.9,�L
2022/11/23,18:10,0.546,0.779,0.504,0.987,0.679,0.328,0.569,0.541,�k��,11.4,�L
2022/11/23,18:20,0.544,0.773,0.507,0.985,0.674,0.330,0.570,0.540,�k�k��,8.3,�L
2022/11/23,18:30,0.551,0.781,0.508,0.987,0.679,0.330,0.571,0.544,�k�k��,10.6,�L
2022/11/23,18:40,0.549,0.780,0.507,0.983,0.672,0.331,0.571,0.543,�k�k��,7.3,�L
2022/11/23,18:50,0.550,0.783,0.509,0.984,0.674,0.332,0.571,0.543,�k�k��,8.5,�L
2022/11/23,19:00,0.550,0.784,0.509,0.985,0.677,0.332,0.571,0.545,�k�k��,7.9,�L
2022/11/23,19:10,0.548,0.777,0.507,0.981,0.673,0.333,0.570,0.545,�k�k��,5.8,�L
2022/11/23,19:20,0.547,0.782,0.507,0.980,0.672,0.331,0.569,0.543,�k��,8.5,�L
2022/11/23,19:30,0.548,0.778,0.507,0.977,0.666,0.331,0.569,0.542,�k�k��,11.3,�L
2022/11/23,19:40,0.546,0.778,0.504,0.973,0.661,0.329,0.566,0.539,���k��,9.0,�L
2022/11/23,19:50,0.553,0.782,0.509,0.976,0.657,0.330,0.566,0.538,�k��,7.1,�L
2022/11/23,20:00,0.557,0.783,0.510,0.981,0.659,0.332,0.568,0.539,�k�k��,4.8,�L
2022/11/23,20:10,0.554,0.782,0.513,0.980,0.659,0.336,0.570,0.539,�k��,9.5,�L
2022/11/23,20:20,0.555,0.781,0.509,0.980,0.656,0.335,0.568,0.542,�k,3.1,�L
2022/11/23,20:30,0.554,0.783,0.511,0.984,0.657,0.336,0.570,0.542,�k,3.0,�L
2022/11/23,20:40,0.555,0.784,0.512,0.985,0.658,0.337,0.570,0.544,�k,5.5,�L
2022/11/23,20:50,0.553,0.782,0.509,0.981,0.649,0.336,0.569,0.543,���k��,7.0,�L
2022/11/23,21:00,0.557,0.783,0.512,0.986,0.651,0.337,0.571,0.543,-,CALM,�L
2022/11/23,21:10,0.558,0.785,0.511,0.987,0.651,0.338,0.571,0.549,���쓌,10.6,�L
2022/11/23,21:20,0.559,0.785,0.511,0.989,0.650,0.337,0.572,0.547,��쓌,9.9,�L
2022/11/23,21:30,0.556,0.786,0.512,0.990,0.648,0.336,0.569,0.547,���쓌,4.5,�L
2022/11/23,21:40,0.555,0.787,0.511,0.992,0.649,0.336,0.570,0.547,�쓌,2.3,�L
2022/11/23,21:50,0.556,0.786,0.511,0.990,0.650,0.334,0.569,0.547,���쓌,2.6,�L
2022/11/23,22:00,0.555,0.787,0.511,0.991,0.649,0.335,0.570,0.549,���쓌,4.6,�L
2022/11/23,22:10,0.554,0.789,0.510,0.993,0.650,0.334,0.570,0.547,��,5.0,�L
2022/11/23,22:20,0.555,0.788,0.509,0.991,0.647,0.332,0.566,0.544,�쓌,7.6,�L
2022/11/23,22:30,0.555,0.786,0.508,0.988,0.647,0.332,0.569,0.543,���쓌,6.3,�L
2022/11/23,22:40,0.556,0.788,0.508,0.989,0.649,0.332,0.569,0.544,�쓌,8.3,�L
2022/11/23,22:50,0.556,0.790,0.508,0.994,0.650,0.331,0.570,0.544,�쓌,9.3,�L
2022/11/23,23:00,0.557,0.790,0.508,0.995,0.651,0.333,0.570,0.547,���쓌,9.0,�L
2022/11/23,23:10,0.558,0.793,0.508,0.996,0.653,0.331,0.570,0.545,���쓌,9.9,�L
2022/11/23,23:20,0.554,0.788,0.507,0.999,0.651,0.331,0.571,0.543,���쓌,10.3,�L
2022/11/23,23:30,0.554,0.789,0.506,0.998,0.652,0.330,0.571,0.543,���쓌,7.7,�L
2022/11/23,23:40,0.556,0.789,0.506,0.996,0.653,0.331,0.570,0.545,���쓌,6.8,�L
2022/11/23,23:50,0.555,0.789,0.506,0.998,0.655,0.331,0.569,0.545,���쓌,6.0,�L
